Lid_Strength_Index
2 3 3 3 3 3 2 3 3 3 3 3 3 2 2 2 1 3 5 5 7 11 11 11 10 12 11 10 12 13 12 13 13 13 13 14 14 13 15 14 14 14 16 17 18 20 19 13 13 13 12 14 13 12
3 2 3 3 3 3 2 3 3 3 3 3 3 3 2 2 1 2 5 4 5 10 11 9 9 9 10 10 11 12 12 12 11 13 13 13 15 16 15 17 14 14 13 14 13 14 13 13 14 13 12 12 13 12
4 4 3 3 3 3 3 3 3 3 3 3 3 3 3 2 1 2 4 4 6 10 10 11 11 9 8 9 8 11 12 10 11 11 12 13 14 13 15 15 15 14 15 14 12 14 15 14 13 13 13 12 12 12
4 4 4 3 3 3 3 3 3 3 3 3 3 3 3 3 2 2 4 4 5 8 12 12 9 10 9 8 9 9 10 11 11 11 12 13 13 14 14 15 15 14 14 14 15 16 16 15 14 13 13 12 12 12
4 4 4 4 3 3 3 3 3 3 2 2 2 2 3 3 2 3 3 3 3 7 11 11 11 10 10 9 9 9 10 11 12 12 14 14 15 16 16 15 16 15 14 13 13 12 12 12 13 12 13 13 13 13
4 4 4 4 4 4 3 3 3 3 2 2 2 2 2 2 2 4 8 4 3 4 9 15 10 12 10 9 10 10 10 11 12 12 13 12 14 14 17 19 14 13 12 11 12 11 11 12 12 12 13 12 13 14
5 5 5 4 4 4 3 3 3 2 2 2 2 2 2 2 4 8 9 6 3 4 10 14 14 11 10 10 11 11 11 12 12 13 14 14 14 13 17 22 15 14 13 14 13 13 13 13 13 13 13 14 15 17
5 5 4 4 4 4 3 3 2 2 2 2 2 2 1 1 2 5 4 2 3 7 8 12 13 12 9 10 11 10 12 12 13 13 15 15 15 14 18 14 15 15 15 15 14 15 14 14 14 14 15 15 16 16
5 5 4 4 3 3 3 2 2 2 2 1 1 1 3 5 7 7 1 1 3 7 11 11 16 18 10 9 9 10 10 13 10 13 14 13 17 18 16 14 13 14 14 14 15 16 16 15 15 16 16 17 16 16
4 4 4 4 3 4 3 2 1 1 1 1 3 6 9 7 2 2 5 7 7 7 11 11 13 15 11 12 11 11 10 14 15 12 11 14 17 13 13 13 13 14 14 15 17 16 18 17 17 17 16 15 15 16
3 3 3 3 2 3 3 2 1 1 1 5 7 8 6 1 5 7 10 11 11 13 11 14 14 16 11 15 15 11 13 15 18 15 14 14 18 12 12 14 12 11 12 13 13 13 12 13 14 16 17 17 18 18
2 3 2 2 2 2 2 0 -0 2 4 4 6 4 5 7 9 11 13 14 17 18 16 16 14 12 13 11 14 14 14 15 19 16 15 18 15 13 14 14 14 14 14 13 13 11 13 13 13 13 13 15 16 16
2 2 2 1 1 1 0 -1 -1 -0 1 3 5 7 8 9 13 15 19 21 20 18 15 12 14 11 12 11 15 15 18 17 15 14 19 17 16 22 23 22 20 19 17 16 15 15 16 16 16 17 16 19 18 19
2 2 2 1 1 1 1 -0 -1 -0 3 7 9 13 12 14 16 17 17 15 14 13 12 14 12 14 10 12 11 16 13 14 16 20 18 17 22 26 25 25 24 24 23 22 21 21 22 21 24 24 24 24 21 22
2 2 2 2 1 1 1 1 2 5 7 11 12 15 16 16 19 19 19 16 17 15 10 12 11 10 12 13 11 15 17 19 15 18 18 22 24 26 26 26 27 26 26 26 25 26 25 25 26 28 28 27 26 26
3 3 5 2 1 1 3 5 8 8 11 10 16 17 19 17 20 19 18 19 17 13 10 10 10 11 13 12 14 16 17 20 18 21 24 22 24 27 30 30 29 29 30 29 27 27 28 28 29 31 31 30 29 27
3 9 3 2 2 4 4 11 12 17 15 17 24 24 24 19 21 23 23 20 17 15 13 12 14 15 13 14 15 16 18 22 27 28 29 32 32 32 31 30 30 31 30 30 31 29 29 30 29 29 30 31 31 30
9 6 2 3 6 8 14 14 17 19 25 23 23 26 24 24 22 22 22 18 18 17 14 13 12 16 16 17 20 24 26 26 28 28 29 32 33 34 35 35 34 34 33 34 34 33 31 30 26 27 28 29 30 30
6 5 3 3 7 13 17 19 18 25 27 26 24 23 24 24 22 21 21 19 19 18 18 15 16 15 19 28 29 25 28 30 30 27 28 32 32 35 34 33 33 33 34 34 31 31 32 32 31 30 29 27 27 26
4 4 4 5 7 15 21 22 18 22 27 24 23 24 24 25 23 22 23 22 19 16 18 20 26 30 30 30 30 30 30 28 28 27 28 28 29 31 32 32 31 32 32 33 32 29 31 31 29 30 29 28 29 28
9 9 7 11 15 18 20 21 22 21 21 23 22 21 23 23 26 26 25 22 24 30 27 31 32 31 29 31 31 32 30 29 32 32 32 31 28 30 31 30 30 31 30 31 31 30 29 32 31 29 26 27 26 25
13 10 13 12 16 18 20 21 20 20 21 22 21 22 24 24 26 27 25 26 29 30 30 30 31 32 30 29 29 30 31 33 33 33 29 29 31 30 31 31 30 30 29 29 29 30 30 30 29 26 26 26 24 25
14 14 18 19 18 19 24 20 23 23 23 24 23 24 26 26 26 23 28 29 30 29 30 31 31 30 31 29 28 31 33 35 34 34 33 32 32 31 31 30 28 30 29 29 27 26 25 24 24 25 25 25 25 26
20 27 27 26 26 27 24 25 23 24 24 24 24 27 28 28 27 24 30 33 34 32 33 34 36 33 34 35 35 36 37 36 33 34 34 34 32 33 32 30 30 30 28 26 25 25 24 25 24 25 25 25 26 26
24 35 31 32 29 29 30 32 33 30 32 29 25 26 28 28 26 31 32 34 32 32 31 32 31 30 32 31 31 33 35 36 36 34 32 32 32 30 29 27 27 27 27 25 26 26 26 26 26 26 26 27 27 28
35 37 35 37 35 32 33 31 35 37 36 34 32 30 28 27 27 32 32 31 30 30 30 31 31 30 29 29 30 30 31 32 33 31 31 30 30 30 28 26 25 27 27 27 26 27 27 28 29 31 31 31 29 31
33 35 35 35 35 34 33 34 36 35 38 38 36 33 28 26 29 29 27 28 29 30 29 29 31 31 30 30 29 30 31 32 34 33 34 35 34 34 33 32 29 30 30 29 29 30 31 31 31 31 31 31 30 30
41 41 36 35 34 35 36 35 35 37 37 37 38 34 33 30 29 28 28 29 31 32 32 30 31 33 34 33 34 35 34 34 33 34 35 34 34 33 34 34 33 26 31 32 32 32 34 34 34 35 35 35 35 35
41 43 43 40 39 36 39 37 39 41 41 43 40 35 33 31 32 32 31 33 36 36 35 34 33 37 34 34 34 35 36 37 35 34 34 34 34 33 36 36 37 36 36 37 30 27 32 35 35 35 35 35 34 37
41 46 40 39 38 39 42 46 46 50 47 47 47 41 37 35 33 33 35 37 36 36 37 41 42 44 41 42 39 36 40 40 38 36 37 36 35 38 39 38 38 38 38 40 35 35 29 32 31 34 34 36 36 35
42 46 41 39 40 43 47 51 53 53 51 51 53 50 44 43 39 38 39 40 43 45 45 42 42 41 41 41 42 41 35 39 41 38 38 37 37 36 36 35 34 38 39 38 38 38 36 36 37 38 36 35 35 33
44 46 42 37 38 46 50 48 48 48 48 47 45 51 44 43 37 33 37 43 43 41 38 40 42 37 37 38 39 38 33 34 35 34 35 35 35 34 34 34 37 39 39 36 37 37 37 37 36 36 35 35 35 34
45 48 46 43 40 40 44 45 42 41 44 43 42 46 46 42 33 30 36 37 34 34 34 35 35 36 37 37 36 35 33 35 36 28 27 26 27 28 32 34 35 36 37 36 35 35 35 36 35 35 35 34 33 33